STARLINK-1741, 46567

Orbit data source: Space-Track

STARLINK-1741, 46567 is a payload satellite owned by SpaceX/Seattle (US) in LEO that was launched on Tue, 06 Oct 2020 UTC via an FALCON 9 launch vehicle from the Air Force Eastern Test Range (AFETR). Payload-class satellites include a variety of spacecraft equipped with specific instruments for various scientific and technological missions. These include communications satellites like Starlink; space stations such as the ISS; scientific satellites like the Hubble; Earth observation satellites from companies like Planet Labs, Umbra, and HawkEye 360; GPS; miniature CubeSats for education and research; and military/defense satellites.

Loading next visibility...
Identifier
46567, 2020-070AM
Orbit
LEO
Country
Flag of USUS
Related business
Manufacturer
SpaceX/Seattle
Mission
Partially operational Commercial Communications
Bus & Motor
STARLINK, Unknown motor
Mass
260 kg wet, ~248 kg dry
Launch date (UTC)
2020-10-06 (5 years ago)
Launch vehicle
FALCON 9
Launch site
Air Force Eastern Test Range (AFETR)
Object type
Payload
Rocket body
Debris
Shape & HBR
Box + 1 Pan, 10.1 m
Radar Cross Section
13.562 m², Large (>1 m²)

Expand to show TLE details & history
Last TLE update: 4 hours ago

TLE from 4 hours ago
0 STARLINK-1741
1 46567U 20070AM  26073.58335648  .00129434  00000-0  12907-2 0  9991
2 46567  53.0432  93.8075 0001795 162.6857 184.9584 15.64765982  5935
Epoch: 2026-03-14T14:00Z
TLE epoch observation values (Epoch: 2026-03-14T14:00:01.999Z)
Latitude
-9.98611°
Longitude
64.02693°
Altitude
377.85 km
Speed
7.683 km/s
True Right ascension
05h 44m 57s
True Declination
-9° 55' 27"
Sunlit
Object was in daylight at epoch
Visualization orbit readout
Latitude
Unknown
Longitude
Unknown
Altitude
Unknown
Speed
Unknown
Apparent Right ascension
Unknown
Apparent Declination
Unknown
Sunlit
N/A
Visualization observer readout
Local Sidereal Time
22:45:40
Azimuth
Unknown
Elevation
Unknown
Doppler factor
Unknown
Orbital elements
Apogee altitude
375.403 km
Perigee altitude
372.979 km
Semi-major axis
6,752.328 km
Eccentricity
0.00018
Inclination
53.0432°
RAAN
93.8075°
Arg. of periapsis
162.6857°
True anomaly
184.95662°
Mean anomaly
184.9584°
Eccentric anomaly
184.95751°
Mean motion
3.91168 °/min
Orbital period
92.03 mins
BSTAR
0.0012907
Loading maneuver chart data...
Computing Atmospheric mass density...
Loading historical data...
Loading historical data...
Loading historical data...
Loading historical data...
Loading historical data...
Loading historical data...
Loading historical data...

Documentation

Showing up to 5 results
|